[[{"header":{"parameterUnit":"m.s-1","parameterCategory":1,"la1":30.2992,"la2":30.254,"lo1":-89.0895,"lo2":-89.0443,"dy":0.0025,"dx":0.0025,"nx":19,"ny":19,"refTime":"2026-04-17T21:00:00:Z","depth":0,"parameterNumber":2,"parameterNumberName":"U-component_of_WINDS"},"data":[0,0,0,-0.4024,-0.4023,-0.3994,-0.3994,-0.3965,-0.3965,0,0,0,0,0,0,0,0,0,0,0,-0.4037,-0.4037,-0.4024,-0.4023,-0.3994,-0.3994,-0.3965,-0.3965,0,0,0,0,0,0,0,0,0,0,0,-0.4037,-0.4037,-0.4037,-0.4023,-0.3994,-0.3994,-0.3965,-0.3984,0,0,0,0,0,0,0,0,0,0,-0.4011,-0.4028,-0.4037,-0.4037,-0.4023,-0.3994,-0.3994,-0.3985,-0.3983,-0.3982,0,-0.3982,0,-0.3973,-0.3963,-0.3963,0,0,0,-0.4019,-0.403,-0.4018,-0.4037,-0.4023,-0.3994,-0.4006,-0.3984,-0.3982,-0.3979,-0.3981,-0.398,-0.3973,-0.3963,-0.3963,-0.397,-0.397,0,0,-0.4021,-0.4035,-0.4019,-0.4016,-0.4021,-0.4007,-0.4005,-0.3982,-0.3986,-0.3981,-0.3979,-0.3972,-0.3963,-0.3963,-0.3969,-0.397,0,0,0,-0.4028,-0.4036,-0.4024,-0.4018,-0.4012,-0.4006,-0.4004,-0.3987,-0.3981,-0.3979,-0.3972,-0.3963,-0.3963,-0.3969,-0.397,-0.3993,0,0,0,-0.4029,-0.404,-0.4025,-0.4033,-0.4012,-0.3999,-0.4009,-0.3983,-0.398,-0.3972,-0.3963,-0.3963,-0.3969,-0.3969,-0.3992,-0.4002,0,0,0,-0.4037,-0.4041,-0.4038,-0.4034,-0.4021,-0.3999,-0.3992,-0.3982,-0.3976,-0.3963,-0.3963,-0.3969,-0.3969,-0.3991,-0.4001,-0.4009,0,0,0,-0.405,-0.4059,-0.4039,-0.4046,-0.4022,-0.4013,-0.3992,-0.3985,-0.3977,-0.3963,-0.3969,-0.3969,-0.3991,-0.4,-0.4008,-0.4019,-0.4025,0,0,-0.4069,-0.4062,-0.4065,-0.4046,-0.4045,-0.4017,-0.4019,-0.3999,-0.3985,-0.3976,-0.3976,-0.3992,-0.4001,-0.4009,-0.405,-0.4055,0,0,0,-0.4075,-0.4078,-0.4074,-0.4068,-0.4053,-0.4041,-0.4019,-0.4012,-0.4003,-0.3983,-0.3997,-0.4001,-0.4005,-0.401,-0.4014,-0.4018,-0.3972,-0.3972,-0.3972,-0.4121,-0.4104,-0.4108,-0.4087,-0.4081,-0.4059,-0.4053,-0.4039,-0.4022,-0.4026,-0.4024,-0.4051,-0.4057,-0.406,-0.4064,-0.4027,-0.4027,-0.4027,-0.4027,-0.4148,-0.4149,-0.4128,-0.4125,-0.4106,-0.4103,-0.4083,-0.4071,-0.4067,-0.4051,-0.4054,-0.4039,-0.4065,-0.4068,-0.4029,-0.4029,-0.4028,-0.4028,-0.4028,-0.4177,-0.4175,-0.4166,-0.4155,-0.4149,-0.4127,-0.4124,-0.4107,-0.4091,-0.4094,-0.409,-0.409,-0.4088,-0.4093,-0.4093,-0.4093,-0.4093,-0.4093,-0.4093,-0.4211,-0.42,-0.42,-0.4185,-0.4179,-0.4169,-0.4148,-0.4141,-0.413,-0.4118,-0.4118,-0.4103,-0.4071,-0.4064,-0.4095,-0.4095,-0.4094,-0.4094,-0.4094,-0.4247,-0.4236,-0.4235,-0.423,-0.4212,-0.4207,-0.4186,-0.4175,-0.4167,-0.4166,-0.415,-0.4129,-0.412,-0.4117,-0.4111,-0.4153,-0.4153,-0.4153,-0.4153,-0.4273,-0.4267,-0.4262,-0.4254,-0.4244,-0.4225,-0.4226,-0.4209,-0.4191,-0.4185,-0.4176,-0.4167,-0.4164,-0.4157,-0.4153,-0.4148,-0.4198,-0.4198,-0.4198,-0.4295,-0.4287,-0.429,-0.4272,-0.4257,-0.4245,-0.4245,-0.4237,-0.4214,-0.4199,-0.4181,-0.4179,-0.4163,-0.4159,-0.4145,-0.4139,-0.4128,0,0]},{"header":{"parameterUnit":"m.s-1","parameterCategory":1,"la1":30.2992,"la2":30.254,"lo1":-89.0895,"lo2":-89.0443,"dy":0.0025,"dx":0.0025,"nx":19,"ny":19,"refTime":"2026-04-17T21:00:00:Z","depth":0,"parameterNumber":3,"parameterNumberName":"V-component_of_WINDS"},"data":[0,0,0,5.0625,5.0627,5.0695,5.0695,5.0797,5.0798,0,0,0,0,0,0,0,0,0,0,0,5.0617,5.0618,5.0625,5.0627,5.0695,5.0695,5.0797,5.0798,0,0,0,0,0,0,0,0,0,0,0,5.0617,5.0618,5.0619,5.0627,5.0695,5.0695,5.0797,5.0739,0,0,0,0,0,0,0,0,0,0,5.0671,5.0676,5.0618,5.0619,5.0628,5.0694,5.0695,5.0736,5.0743,5.0774,0,5.0807,0,5.0804,5.0806,5.0807,0,0,0,5.0618,5.067,5.0678,5.062,5.0629,5.0694,5.0661,5.074,5.0747,5.0783,5.0808,5.0811,5.0806,5.0807,5.0808,5.1022,5.1023,0,0,5.0614,5.0635,5.0673,5.0683,5.0676,5.0659,5.0664,5.0744,5.0772,5.0808,5.0813,5.0808,5.0808,5.0809,5.1021,5.1022,0,0,0,5.061,5.0633,5.0638,5.068,5.0691,5.0662,5.0666,5.0768,5.0768,5.0814,5.0809,5.0808,5.081,5.1019,5.1021,5.1113,0,0,0,5.0607,5.063,5.0637,5.0651,5.069,5.0731,5.0689,5.0763,5.0771,5.0808,5.0809,5.0811,5.1017,5.102,5.1107,5.1152,0,0,0,5.0609,5.063,5.0645,5.0652,5.0682,5.0729,5.0734,5.0764,5.0769,5.0807,5.0811,5.1016,5.102,5.1102,5.1144,5.1214,0,0,0,5.0616,5.0725,5.0646,5.0766,5.0682,5.0787,5.0733,5.081,5.0853,5.0809,5.1018,5.1021,5.11,5.1138,5.1209,5.1277,5.1307,0,0,5.0766,5.0744,5.0813,5.0744,5.0869,5.0774,5.0912,5.0931,5.0914,5.0986,5.0991,5.1109,5.1143,5.1213,5.1475,5.1499,0,0,0,5.0867,5.0917,5.0945,5.0988,5.1007,5.1025,5.1021,5.1028,5.1088,5.0957,5.1153,5.1173,5.1213,5.1244,5.1265,5.1298,5.1037,5.1036,5.1036,5.1109,5.1082,5.1193,5.1175,5.1218,5.1213,5.1244,5.1252,5.1212,5.1259,5.128,5.1443,5.148,5.1496,5.153,5.1315,5.1316,5.1316,5.1316,5.1324,5.1389,5.1335,5.1423,5.1394,5.1466,5.1465,5.1435,5.1497,5.1425,5.1459,5.1381,5.1524,5.1552,5.1323,5.1322,5.1321,5.132,5.132,5.1479,5.1505,5.1512,5.1571,5.162,5.1596,5.1659,5.163,5.1603,5.1637,5.1655,5.1653,5.1646,5.1648,5.1648,5.1649,5.1649,5.165,5.165,5.1635,5.1641,5.1697,5.1726,5.1749,5.1776,5.1771,5.1792,5.1808,5.1782,5.1782,5.1737,5.1543,5.1494,5.1659,5.1657,5.1656,5.1655,5.1655,5.1862,5.1806,5.1894,5.1917,5.1947,5.1995,5.1958,5.2004,5.2017,5.2049,5.1997,5.1859,5.1834,5.1817,5.1776,5.2003,5.2003,5.2003,5.2003,5.1991,5.1976,5.2059,5.2098,5.2132,5.2107,5.2205,5.2202,5.219,5.2196,5.2159,5.2103,5.2087,5.2072,5.2049,5.201,5.2292,5.2292,5.2293,5.2128,5.2115,5.2205,5.2193,5.2213,5.2231,5.2322,5.2367,5.2341,5.2304,5.22,5.2188,5.2097,5.2069,5.2028,5.1994,5.1922,0,0]}]]